FW9881 Weather Reports


time (UTC)temp
C
wind
direction
speed
KPH
gust
KPH
rain 1hr
cm
rain 24hr
cm
rain mn
cm
humidity
%
barometer
mb
20260904141243 21 270 0.0 0.0 0.00 0.00 0.00 88 1014.2
20260904140326 20 337 1.6 4.8 0.00 0.00 0.00 88 1014.4
20260904135424 20 331 3.2 11.3 0.00 0.00 0.00 88 1014.5
20260904133525 19 320 3.2 6.4 0.00 0.00 0.00 84 1014.5
20260904133426 19 338 1.6 6.4 0.00 0.00 0.00 84 1014.5
20260904132425 18 342 3.2 8.0 0.00 0.00 0.00 84 1014.4
20260904131425 18 337 0.0 1.6 0.00 0.00 0.00 84 1014.6
20260904130426 17 337 0.0 3.2 0.00 0.00 0.00 84 1014.6
20260904125425 17 225 0.0 1.6 0.00 0.00 0.00 84 1014.6
20260904123324 15 157 1.6 3.2 0.00 0.00 0.00 85 1014.5
20260904122324 15 157 0.0 1.6 0.00 0.00 0.00 85 1014.6
20260904122225 15 157 0.0 0.0 0.00 0.00 0.00 85 1014.5
20260904122126 15 157 0.0 1.6 0.00 0.00 0.00 85 1014.5
20260904121125 14 157 0.0 1.6 0.00 0.00 0.00 85 1014.6
20260904115224 14 292 0.0 0.0 0.00 0.00 0.00 85 1014.5
20260904115127 14 292 0.0 0.0 0.00 0.00 0.00 84 1014.5
20260904114126 14 292 0.0 0.0 0.00 0.00 0.00 84 1014.6
20260904113125 14 292 0.0 0.0 0.00 0.00 0.00 85 1014.5
20260904112225 14 292 0.0 0.0 0.00 0.00 0.00 85 1014.5
20260904111324 13 292 0.0 0.0 0.00 0.00 0.00 84 1014.4
20260904111224 13 292 0.0 0.0 0.00 0.00 0.00 85 1014.5
20260904110227 13 22 0.0 0.0 0.00 0.00 0.00 84 1014.5
20260904105324 13 22 0.0 0.0 0.00 0.00 0.00 85 1014.4
20260904104327 13 22 0.0 0.0 0.00 0.00 0.00 84 1014.3
20260904103324 13 22 0.0 0.0 0.00 0.00 0.00 85 1014.3
20260904102327 13 22 0.0 0.0 0.00 0.00 0.00 85 1014.3
20260904101425 13 180 0.0 0.0 0.00 0.00 0.00 85 1014.2
20260904100524 13 180 0.0 0.0 0.00 0.00 0.00 85 1014.3
20260904095526 13 180 0.0 0.0 0.00 0.00 0.00 85 1014.3
20260904092623 13 180 0.0 0.0 0.00 0.00 0.00 85 1014.1
20260904091625 13 180 0.0 0.0 0.00 0.03 0.00 84 1014.0
20260904090625 13 180 0.0 0.0 0.00 0.03 0.00 84 1014.1
20260904090542 13 180 0.0 0.0 0.00 0.03 0.00 85 1014.1
20260904085524 14 180 0.0 0.0 0.00 0.03 0.00 84 1014.1
20260904085425 14 180 0.0 0.0 0.00 0.03 0.00 84 1014.0
20260904084440 14 180 0.0 0.0 0.00 0.03 0.00 85 1013.9
20260904083527 14 180 0.0 0.0 0.00 0.05 0.00 85 1014.1
20260904082623 14 180 0.0 0.0 0.00 0.05 0.00 85 1014.0
20260904082544 14 180 0.0 0.0 0.00 0.05 0.00 84 1014.1
20260904081626 14 180 0.0 0.0 0.00 0.05 0.00 85 1014.1
20260904081540 14 180 0.0 0.0 0.00 0.05 0.00 85 1014.1
20260904080624 14 180 0.0 0.0 0.00 0.05 0.00 84 1014.2
20260904075724 14 180 0.0 0.0 0.00 0.05 0.00 84 1014.4
20260904073725 15 180 0.0 0.0 0.00 0.05 0.00 84 1014.3
20260904071724 15 180 0.0 0.0 0.00 0.05 0.00 83 1014.3
20260904070724 15 180 0.0 0.0 0.00 0.05 0.00 84 1014.4
20260904065724 15 180 0.0 0.0 0.00 0.05 0.00 84 1014.4
20260904064726 15 180 0.0 0.0 0.00 0.05 0.00 84 1014.5
20260904064624 15 180 0.0 0.0 0.00 0.05 0.00 83 1014.5
20260904063724 15 180 0.0 0.0 0.00 0.08 0.00 83 1014.5
20260904062740 15 180 0.0 0.0 0.00 0.10 0.00 84 1014.5
20260904061825 15 180 0.0 0.0 0.00 0.10 0.00 84 1014.5
20260904061740 15 180 0.0 0.0 0.00 0.10 0.00 84 1014.5
20260904060826 15 180 0.0 0.0 0.00 0.15 0.00 83 1014.6
20260904055826 16 180 0.0 0.0 0.00 0.18 0.00 84 1014.7
20260904054824 16 180 0.0 0.0 0.00 0.18 0.00 84 1015.0
20260904053824 16 180 0.0 0.0 0.00 0.18 0.00 83 1015.1
20260904051924 16 180 0.0 0.0 0.00 0.18 0.00 83 1015.3
20260904050926 16 180 0.0 0.0 0.00 0.18 0.00 84 1015.3
20260904050023 16 180 0.0 0.0 0.00 0.18 0.00 84 1015.4
20260904045023 16 180 0.0 0.0 0.00 0.18 0.00 84 1015.4
20260904044025 16 180 0.0 0.0 0.00 0.18 0.00 84 1015.4
20260904043024 17 180 1.6 3.2 0.00 0.18 0.00 84 1015.4
20260904042039 17 180 0.0 0.0 0.00 0.18 0.00 83 1015.4
20260904040028 17 180 0.0 0.0 0.00 0.18 0.00 85 1015.5
20260904035112 17 180 0.0 0.0 0.00 0.18 0.18 85 1015.4
20260904034114 17 180 0.0 0.0 0.00 0.18 0.18 85 1015.6
20260904033111 17 180 0.0 0.0 0.00 0.18 0.18 84 1015.6
20260904032113 17 180 0.0 0.0 0.00 0.18 0.18 85 1015.6
20260904031114 17 180 0.0 0.0 0.00 0.18 0.18 85 1015.5
20260904030111 17 180 0.0 0.0 0.00 0.18 0.18 85 1015.7
20260904025210 17 180 0.0 0.0 0.00 0.18 0.18 84 1015.7
20260904023212 18 225 0.0 0.0 0.00 0.18 0.18 85 1015.4
20260904023113 18 225 0.0 0.0 0.00 0.18 0.18 84 1015.5
20260904022012 18 225 0.0 0.0 0.00 0.18 0.18 85 1015.5
20260904021027 18 225 0.0 0.0 0.00 0.18 0.18 84 1015.8
20260904020112 18 225 0.0 0.0 0.00 0.18 0.18 84 1015.6
20260904015210 19 225 0.0 0.0 0.00 0.18 0.18 84 1015.9
20260904015112 19 225 0.0 0.0 0.00 0.18 0.18 84 1015.9
20260904014111 19 225 0.0 0.0 0.00 0.18 0.18 85 1015.9
20260904014010 19 225 0.0 0.0 0.00 0.18 0.18 85 1015.8
20260904013010 19 225 0.0 0.0 0.00 0.18 0.18 86 1015.9
20260904011011 19 225 0.0 0.0 0.00 0.18 0.18 85 1015.8
20260904010011 19 225 0.0 0.0 0.00 0.18 0.18 87 1015.9
20260904005012 19 225 0.0 0.0 0.00 0.18 0.18 86 1015.7
20260904004910 19 225 0.0 0.0 0.00 0.18 0.18 87 1015.7
20260904003912 19 225 0.0 0.0 0.00 0.18 0.18 87 1015.5
20260904003011 19 225 0.0 0.0 0.00 0.18 0.18 88 1015.5
20260904002012 19 225 0.0 0.0 0.00 0.18 0.18 87 1015.3
20260904001910 19 225 0.0 0.0 0.00 0.18 0.18 87 1015.3
20260904000912 20 225 0.0 0.0 0.00 0.18 0.18 89 1015.1
20260903235911 20 225 0.0 0.0 0.00 0.18 0.18 88 1014.9
20260903234012 20 225 0.0 0.0 0.00 0.18 0.18 85 1014.8
20260903233912 20 225 0.0 0.0 0.00 0.18 0.18 86 1014.8
20260903233012 21 225 0.0 0.0 0.00 0.18 0.18 85 1014.8
20260903232011 21 225 0.0 0.0 0.00 0.18 0.18 84 1014.5
20260903231009 22 225 0.0 0.0 0.00 0.18 0.18 83 1014.6
20260903230012 23 225 0.0 0.0 0.00 0.18 0.18 80 1014.6
20260903225026 24 225 0.0 0.0 0.00 0.18 0.18 78 1014.8
20260903223012 24 225 0.0 1.6 0.00 0.18 0.18 76 1014.6
20260903221013 24 225 0.0 0.0 0.00 0.18 0.18 77 1014.7
20260903215111 24 214 1.6 4.8 0.00 0.18 0.18 74 1015.1
20260903214110 25 245 1.6 4.8 0.00 0.18 0.18 72 1014.8
20260903213209 25 175 3.2 9.7 0.00 0.18 0.18 72 1014.6
20260903212229 25 276 3.2 6.4 0.00 0.18 0.18 72 1014.8
20260903211309 25 247 0.0 3.2 0.00 0.18 0.18 71 1014.8
20260903210312 25 240 4.8 6.4 0.00 0.18 0.18 71 1014.8
20260903205212 26 178 4.8 6.4 0.00 0.18 0.18 71 1014.7
20260903204212 26 213 1.6 4.8 0.00 0.18 0.18 73 1014.7
20260903203211 26 157 0.0 0.0 0.00 0.18 0.18 74 1014.7
20260903201210 25 202 0.0 1.6 0.00 0.18 0.18 76 1014.9
20260903201147 25 190 0.0 1.6 0.00 0.18 0.18 76 1015.0
20260903200230 24 213 0.0 4.8 0.00 0.18 0.18 79 1015.0
20260903194230 23 183 3.2 4.8 0.00 0.18 0.18 82 1015.4
20260903193330 22 180 0.0 0.0 0.00 0.18 0.18 83 1015.5
20260903191431 23 157 1.6 1.6 0.00 0.18 0.18 83 1015.8
20260903191345 23 157 0.0 1.6 0.00 0.18 0.18 83 1015.8
20260903190433 23 202 0.0 0.0 0.00 0.18 0.18 83 1015.7
20260903184629 22 225 1.6 4.8 0.00 0.18 0.18 82 1015.9
20260903180529 20 247 0.0 0.0 0.00 0.18 0.18 88 1016.4
20260903180431 20 247 0.0 0.0 0.00 0.18 0.18 87 1016.5
20260903174530 20 337 0.0 0.0 0.00 0.18 0.18 89 1016.6
20260903173629 19 337 1.6 3.2 0.00 0.18 0.18 89 1016.8
20260903171648 18 337 0.0 0.0 0.00 0.18 0.18 88 1017.0
20260903170732 18 337 0.0 0.0 0.00 0.18 0.18 89 1017.0
20260903165732 18 337 0.0 0.0 0.00 0.18 0.18 89 1017.2
20260903163830 19 337 0.0 0.0 0.00 0.18 0.18 89 1017.0
20260903162830 18 337 0.0 0.0 0.00 0.18 0.18 89 1016.9
20260903161830 19 337 0.0 0.0 0.00 0.18 0.18 89 1016.9
20260903160830 20 337 0.0 1.6 0.00 0.18 0.18 89 1016.9
20260903155846 19 360 0.0 0.0 0.00 0.18 0.18 89 1017.0
20260903155730 19 360 0.0 0.0 0.00 0.18 0.18 88 1017.0
20260903154731 18 22 0.0 0.0 0.00 0.18 0.18 89 1017.0
20260903154631 18 22 0.0 0.0 0.00 0.18 0.18 89 1017.0
20260903153730 18 337 0.0 0.0 0.00 0.18 0.18 88 1017.1
20260903152730 18 337 0.0 0.0 0.00 0.18 0.18 86 1017.3
20260903151749 18 337 0.0 0.0 0.00 0.18 0.18 86 1017.6
20260903150830 18 337 0.0 0.0 0.00 0.18 0.18 85 1017.7
20260903145829 17 337 0.0 0.0 0.00 0.18 0.18 85 1017.7
20260903144830 17 337 0.0 0.0 0.00 0.18 0.18 85 1017.8
20260903143829 17 337 0.0 0.0 0.00 0.18 0.18 85 1017.9
20260903143730 17 337 0.0 0.0 0.00 0.18 0.18 85 1017.9
20260903142830 17 315 0.0 0.0 0.00 0.18 0.18 84 1017.9
20260903141831 16 157 0.0 0.0 0.00 0.18 0.18 85 1017.8